Helicity
92 115 121 53 108 70 -18 77 156 142 142 215 67 134 94 129 111 45 80 79 -28 -35 0 -11 16 6 0 0 2 7 10 17 14 18 26 26 30 30 36 16 -7 -1 8 10 11 44 -20 -17 -10
119 195 170 14 183 62 63 75 189 193 97 -2 174 88 222 236 148 130 186 174 95 -5 -18 1 20 15 10 4 3 -2 9 10 9 9 24 26 26 30 35 37 40 10 30 36 38 64 6 -1 0
93 101 -30 -14 153 77 9 -3 96 115 133 39 57 174 172 116 194 119 149 95 82 -6 1 -4 17 26 13 7 5 4 6 5 5 4 8 14 23 27 30 31 30 33 43 40 62 67 48 -13 -4
79 58 61 -126 19 9 -73 4 39 78 90 77 42 133 89 196 124 142 34 37 17 35 5 -15 -2 9 6 6 10 10 11 11 10 10 16 22 22 17 17 24 31 28 25 29 46 58 55 -19 -6
-8 31 21 66 -30 -32 29 -36 79 277 192 114 54 51 75 93 81 77 62 37 57 12 -8 -3 -22 -8 16 21 26 25 20 16 12 11 6 8 12 12 10 11 16 16 18 22 33 40 36 17 -5
78 -26 79 -10 -36 24 89 20 81 225 206 270 207 59 54 30 73 104 66 -31 -8 6 -10 -10 -8 10 16 14 24 26 28 23 17 12 4 -4 -18 -11 -1 3 8 15 14 14 19 25 23 18 19
26 -3 45 52 53 108 65 -1 64 136 249 272 81 55 13 51 74 111 4 -7 18 6 10 -4 -3 7 22 24 13 21 14 23 37 34 27 22 5 -28 -8 -3 -10 3 10 10 12 11 11 9 8
-32 114 35 20 32 27 -24 61 89 36 41 -7 58 0 40 74 132 57 3 8 0 15 36 23 21 11 26 -10 5 16 11 14 33 40 81 69 33 34 -16 -16 -4 14 4 -1 3 5 2 -2 -6
55 -5 -1 29 16 14 18 16 20 -25 -25 63 43 33 23 54 64 50 40 37 38 25 18 40 61 96 56 26 6 -8 31 37 55 79 72 64 55 97 9 8 14 14 25 29 9 -10 0 11 2
213 232 56 -4 69 67 42 22 3 -34 -42 35 24 -5 8 51 39 5 -3 16 32 58 67 36 68 119 142 77 68 29 36 21 2 57 103 105 58 60 57 82 80 67 26 34 52 24 8 -11 43
-11 134 66 29 71 62 61 34 5 12 38 15 -11 -15 5 -28 2 11 14 49 59 54 63 76 71 98 158 80 117 106 74 84 58 54 132 121 39 77 52 44 42 47 46 40 93 23 58 21 14
166 93 84 95 55 52 74 45 104 70 24 21 21 19 20 29 70 73 88 92 80 88 74 57 59 76 94 108 67 113 36 92 24 64 116 154 75 131 122 91 42 26 41 39 42 40 53 79 116
152 131 147 161 120 121 97 42 27 64 41 43 44 42 61 60 70 70 73 75 69 53 47 45 41 55 63 71 59 71 71 59 34 60 91 131 109 170 146 115 103 60 85 78 68 69 39 58 95
104 125 110 77 97 95 73 22 -7 20 27 20 11 21 35 44 53 68 79 54 55 51 55 52 54 60 45 60 43 46 52 44 38 22 63 85 98 155 136 85 107 115 134 131 109 109 112 53 38
69 130 72 51 37 48 22 20 28 24 13 14 37 45 38 40 60 71 63 68 71 56 50 42 44 45 48 49 42 29 29 23 25 25 39 49 71 116 78 78 109 189 134 95 129 152 132 85 50
48 19 51 20 46 23 12 60 42 35 41 73 81 75 54 47 40 38 59 55 65 59 59 56 51 47 48 34 36 26 20 18 17 15 17 36 49 71 65 55 91 132 83 60 123 135 140 116 126
32 25 78 24 22 11 42 70 80 62 78 86 62 55 49 54 57 57 56 72 77 66 62 53 50 46 40 46 17 27 26 17 6 9 17 27 35 50 80 48 61 87 45 59 72 86 117 170 55
13 79 31 2 20 8 36 61 105 57 61 58 65 83 76 91 92 76 70 75 76 54 49 54 45 32 26 31 41 34 19 14 9 -4 7 19 19 28 39 51 34 65 28 41 66 85 108 145 -2
-6 77 -24 -19 21 19 14 140 108 67 69 80 99 115 113 144 108 95 78 67 91 53 57 51 53 51 40 36 42 42 31 25 11 1 20 10 8 19 25 34 29 39 30 23 36 42 75 95 35
44 -18 38 -13 0 -20 44 128 114 95 75 107 107 112 142 193 138 126 85 85 82 74 52 67 61 56 53 49 43 40 17 18 16 9 9 16 8 20 26 24 21 27 27 32 41 35 50 62 80
12 -23 -3 -8 -14 -5 41 95 137 121 85 99 100 129 163 169 127 138 124 107 78 103 68 84 63 62 52 55 42 67 46 44 30 15 5 15 11 8 15 8 15 15 20 20 19 16 28 38 59
43 114 38 18 -11 2 47 -3 265 184 114 112 137 127 159 162 155 177 153 147 111 125 89 77 68 70 61 46 44 43 63 61 45 33 14 9 4 -10 18 -13 -15 -12 -15 5 14 28 13 10 12
89 46 42 33 4 37 52 17 127 224 161 113 126 137 140 196 230 202 171 172 110 147 103 85 59 55 68 42 42 38 46 41 42 40 27 38 11 13 29 20 -11 -18 -11 -12 -15 3 -3 20 20
49 56 49 47 26 25 5 65 164 214 124 125 132 143 151 168 221 185 197 226 222 159 114 68 31 61 68 55 43 36 41 44 46 37 42 43 36 25 36 45 13 4 6 4 -2 -4 -3 -12 10
50 64 79 56 80 49 171 98 28 141 139 119 225 246 219 202 255 245 224 195 174 171 112 71 35 37 57 58 65 65 59 48 44 43 48 51 57 57 44 62 46 42 28 21 17 20 7 1 17
50 52 103 85 85 101 120 57 150 205 203 208 132 224 301 306 300 261 178 188 221 222 140 93 75 65 103 89 105 104 79 69 63 67 57 63 69 72 73 69 95 83 68 53 40 44 51 35 36
82 100 111 99 91 109 119 147 171 193 163 127 160 193 292 318 300 251 151 227 210 184 114 107 113 84 93 171 145 131 128 121 117 98 97 111 120 130 131 120 104 86 76 66 63 75 62 58 57
176 166 115 154 105 113 80 45 110 123 136 115 131 147 255 291 315 266 169 256 186 132 148 195 197 145 200 200 159 170 163 153 135 126 130 139 137 133 133 132 123 109 98 89 77 76 73 81 85
144 166 144 113 145 134 118 126 130 98 149 181 119 166 187 299 324 268 211 190 145 217 237 247 259 211 231 210 195 175 159 144 128 130 144 146 148 144 131 125 120 123 119 117 120 114 91 78 71
226 104 120 178 143 165 205 163 188 281 295 236 192 231 211 306 301 263 188 221 294 342 338 310 248 229 232 210 213 194 169 133 136 139 148 158 147 132 128 119 116 115 114 113 93 103 122 134 154
Wind_Speed
40 39 36 27 26 22 44 11 16 12 19 28 37 35 42 36 28 36 20 14 15 8 12 5 5 1 2 1 6 15 18 23 22 23 24 26 29 25 25 40 52 53 51 50 50 8 39 46 47
36 44 46 24 29 43 27 14 22 19 24 36 37 36 34 36 26 41 24 12 18 27 25 10 13 12 9 3 5 7 25 29 28 28 29 29 31 34 33 31 12 31 33 41 39 21 26 36 40
32 27 23 19 22 5 17 18 28 27 30 31 30 32 23 23 17 30 16 12 6 42 35 10 24 24 25 27 23 14 22 32 37 37 34 32 33 34 34 37 37 35 28 32 31 29 8 38 39
23 15 18 30 27 16 22 40 43 35 35 35 33 27 32 25 25 25 15 14 12 11 40 43 45 42 36 36 35 33 34 33 36 38 40 40 38 36 36 36 37 38 38 36 35 36 36 45 40
27 23 25 17 19 5 26 24 33 32 25 29 24 21 27 31 21 18 15 20 17 27 49 50 50 50 47 46 43 40 38 37 37 40 41 42 42 42 41 39 38 38 38 38 38 39 38 40 42
14 43 6 29 14 9 22 31 43 43 30 25 22 17 24 29 18 19 23 43 34 40 48 50 50 52 53 52 51 50 47 46 44 44 42 44 45 43 42 41 41 41 41 41 40 39 38 37 36
15 46 54 30 21 10 18 47 54 47 38 18 13 11 19 22 21 23 30 40 40 44 46 48 48 50 51 52 52 52 52 50 48 46 46 46 14 35 40 41 41 42 42 42 42 41 41 41 40
12 28 44 28 29 19 33 46 47 53 61 19 17 15 15 29 24 26 36 40 44 46 48 49 48 46 48 50 52 51 51 54 54 52 50 50 51 31 34 37 41 41 40 40 40 40 41 40 39
48 44 33 32 39 38 42 46 46 49 51 30 23 18 32 26 23 32 37 40 43 48 50 50 52 52 44 44 47 50 52 53 56 56 55 54 51 51 41 46 49 49 47 43 37 32 30 31 34
17 25 26 53 56 55 44 45 46 45 41 13 42 41 36 17 31 37 39 40 43 47 50 52 52 52 54 51 50 47 51 51 54 58 56 56 54 52 52 53 54 54 52 49 58 39 48 37 30
56 34 46 49 50 45 47 46 47 49 19 30 52 48 45 42 41 40 39 42 45 46 49 52 53 53 54 51 52 53 53 54 56 59 60 54 50 53 52 53 53 53 55 53 53 49 47 48 31
45 49 58 54 49 46 47 47 30 30 51 54 51 48 45 40 34 39 41 44 44 47 50 52 52 52 53 54 53 53 52 54 54 57 60 58 55 55 51 50 51 54 54 56 56 54 57 56 58
45 45 43 40 39 44 39 39 41 47 54 52 48 45 40 38 38 40 41 43 45 47 48 51 52 52 52 53 52 53 54 54 53 57 58 59 56 57 56 55 54 58 57 57 59 61 60 61 60
41 43 39 36 40 42 46 48 42 49 50 48 45 42 39 38 38 40 42 44 46 47 48 48 52 52 52 52 51 52 53 54 54 55 59 60 58 59 57 57 58 58 59 60 60 60 61 63 61
41 41 37 38 41 44 48 36 47 49 48 46 43 40 39 38 38 40 42 44 45 47 49 51 49 51 53 52 52 52 53 53 54 55 58 59 59 60 57 58 60 62 61 61 63 64 63 60 64
40 39 43 40 45 50 34 39 46 45 43 42 39 37 37 37 38 40 42 43 46 47 49 50 51 51 49 50 49 50 51 52 54 55 57 59 61 60 59 59 60 63 61 61 63 63 64 65 65
50 42 29 39 48 44 39 43 42 40 39 38 36 35 34 35 35 37 38 40 44 46 47 48 50 48 49 45 45 47 51 52 51 55 57 59 61 61 61 58 61 62 60 61 63 63 64 67 65
45 21 29 35 49 45 39 34 38 38 36 34 33 32 30 30 30 32 35 38 41 42 44 46 48 48 47 50 49 49 50 50 52 52 56 59 60 61 61 60 61 62 59 63 65 65 64 65 65
44 8 47 39 44 41 39 27 33 36 33 31 29 27 26 27 27 30 32 34 39 40 42 45 47 49 47 47 47 47 46 49 50 51 52 57 56 60 58 60 60 61 60 62 64 64 64 64 67
21 45 23 36 41 38 29 22 30 31 29 26 24 22 22 24 24 25 27 31 34 37 39 42 46 48 48 49 48 39 43 47 48 50 53 53 56 56 58 58 59 60 58 62 63 64 63 62 65
34 40 38 39 21 37 18 19 23 24 23 22 19 19 19 19 19 22 24 27 29 35 37 41 43 44 48 53 50 52 47 47 50 51 52 49 53 54 55 56 57 59 58 60 61 62 63 63 62
30 24 33 28 21 39 18 40 18 19 18 17 13 12 13 14 17 19 22 25 29 33 35 36 39 42 44 49 49 50 52 51 51 52 53 51 49 50 51 56 56 56 57 57 58 58 59 59 61
25 25 26 20 44 49 15 38 12 15 8 9 10 8 9 11 14 18 20 22 25 29 32 35 35 36 40 42 46 49 51 52 53 53 54 49 54 52 49 54 57 57 55 56 57 57 58 57 58
21 22 26 32 38 42 5 18 15 3 1 5 7 6 7 8 11 14 19 23 24 29 30 31 35 36 37 39 42 45 47 49 52 49 53 51 56 57 57 55 58 59 59 60 60 60 60 60 57
25 21 34 36 27 36 30 27 27 22 12 6 6 7 7 8 8 12 16 19 21 23 26 28 30 36 37 38 43 47 51 52 51 55 56 61 63 62 63 62 65 61 64 67 66 65 67 66 63
28 19 28 42 39 47 22 34 28 19 21 26 20 4 7 5 7 9 12 16 20 26 27 28 34 39 45 47 52 56 58 58 60 62 65 66 65 64 69 68 67 70 71 69 69 70 70 70 71
27 35 39 40 44 42 36 35 28 17 18 21 20 12 3 2 5 8 10 14 19 21 23 25 35 43 47 52 57 58 59 62 63 66 65 66 69 72 73 77 78 78 76 75 74 73 74 74 75
37 38 35 37 45 47 45 45 43 12 18 19 19 18 8 3 4 8 10 14 18 21 27 34 38 44 49 53 55 57 59 62 65 67 69 72 74 77 78 78 78 79 79 79 80 80 78 77 76
39 40 37 35 39 49 55 43 43 23 23 20 23 19 17 9 8 11 13 15 16 26 32 38 42 45 49 53 56 59 61 65 68 70 73 75 78 79 81 81 82 82 81 80 81 81 83 84 85
47 40 37 48 50 45 55 54 39 36 34 28 26 24 22 12 12 12 12 18 24 29 34 37 40 45 50 55 58 60 63 67 70 73 75 77 78 79 80 82 83 84 85 85 87 88 88 89 88
Wind_Direction
221 222 223 254 261 272 175 237 4 314 351 12 27 40 48 23 0 38 221 195 173 275 294 284 303 179 144 288 317 332 336 344 340 339 340 344 350 345 346 11 52 54 35 24 20 305 98 87 88
214 213 222 280 223 128 220 16 27 358 17 42 25 40 29 31 11 121 153 206 187 337 333 297 313 313 312 292 150 309 338 344 343 342 340 339 347 355 353 350 303 22 348 358 352 311 118 104 98
210 255 265 271 197 43 236 8 38 17 13 14 30 20 1 4 182 156 189 255 4 17 358 289 328 329 331 334 329 316 328 342 349 350 345 341 343 347 350 358 356 343 323 333 330 319 211 93 94
230 281 284 336 22 18 56 83 75 57 26 23 49 20 35 185 189 166 225 243 257 273 2 3 5 357 345 345 343 340 340 339 344 347 352 351 349 347 346 346 348 346 342 337 334 336 346 58 82
239 295 252 3 216 239 43 330 18 28 14 12 22 28 24 11 182 265 252 303 286 335 32 29 16 14 2 0 353 346 342 338 338 346 349 350 355 360 0 353 347 344 339 335 337 341 348 7 32
345 122 124 83 219 283 356 27 50 39 28 11 29 16 16 8 271 255 155 39 20 358 26 30 20 20 20 14 9 4 358 353 347 344 340 345 11 15 13 6 359 350 342 335 331 333 337 333 327
3 95 115 91 70 301 299 71 70 43 24 355 272 342 360 308 257 232 43 35 359 12 21 29 33 27 26 17 15 13 7 357 347 338 334 333 331 46 26 21 11 359 352 346 338 331 331 330 320
13 66 82 67 67 13 45 47 62 66 79 49 261 330 306 201 237 202 13 28 30 24 11 19 20 32 29 26 15 10 11 5 357 346 336 332 338 23 22 20 11 6 4 356 350 348 339 335 337
89 83 65 65 75 73 83 65 47 56 70 169 197 216 180 205 313 12 14 15 8 14 18 9 2 351 26 29 22 15 4 2 357 349 341 336 344 347 356 353 341 338 337 347 1 10 7 357 345
222 45 34 101 93 96 68 62 67 68 55 10 69 147 159 331 19 46 47 13 11 0 0 10 2 349 348 2 7 15 9 10 8 356 350 352 344 338 335 331 332 332 334 330 307 340 328 346 355
111 62 72 77 83 75 72 65 79 83 6 189 118 122 122 124 83 56 48 26 21 16 7 2 4 1 350 6 0 4 2 2 360 357 347 354 2 353 351 343 337 333 331 332 332 330 327 324 339
72 75 83 85 84 80 79 71 32 38 114 124 127 124 114 90 16 22 22 18 21 12 12 12 12 8 7 3 7 2 10 2 4 358 354 350 354 348 351 352 349 343 334 329 328 327 319 319 319
74 77 74 71 69 72 64 59 60 74 104 107 108 102 81 63 51 41 37 29 23 23 20 16 15 14 15 15 12 9 7 8 8 3 357 351 351 346 348 347 347 341 336 331 327 322 317 314 315
80 77 75 72 72 71 75 86 115 105 111 111 108 100 85 77 67 49 33 32 22 22 22 25 17 14 16 14 16 12 8 8 6 8 360 357 354 350 351 351 344 343 339 334 329 324 320 315 310
85 80 72 76 84 87 82 55 96 117 120 118 110 102 97 85 61 40 38 29 25 24 19 12 23 19 12 17 14 16 12 11 8 6 1 357 356 351 357 356 350 344 343 340 330 323 319 322 315
83 77 86 99 99 126 181 100 130 124 122 117 110 101 99 90 77 70 53 49 33 28 23 22 17 15 21 14 21 18 14 14 11 7 2 358 357 352 355 359 355 348 350 347 336 329 323 318 315
150 115 78 103 146 132 169 113 131 128 125 116 114 104 97 89 79 66 64 49 38 33 29 26 23 27 23 23 22 20 13 13 13 7 1 357 359 359 357 4 2 359 360 353 346 335 326 320 322
181 80 94 162 164 168 155 121 121 134 129 124 118 107 100 92 78 70 60 48 40 38 34 32 27 23 24 18 14 12 13 7 8 7 1 358 356 356 359 357 359 356 1 354 347 341 331 327 328
207 296 188 170 135 153 154 89 123 135 131 128 116 102 97 83 75 64 53 46 38 36 32 27 28 22 22 22 21 19 18 11 8 4 5 1 360 358 1 358 356 354 357 357 349 346 336 331 331
255 201 249 210 161 211 123 91 127 135 137 127 119 106 92 75 75 65 60 49 40 37 32 30 25 24 20 17 15 22 20 16 12 7 3 4 359 360 358 357 354 353 354 353 353 350 344 334 329
231 213 220 235 224 215 75 116 128 132 134 133 125 110 98 86 80 60 52 49 46 34 31 27 25 25 18 10 13 7 13 13 9 7 3 4 2 360 359 356 354 352 353 352 351 352 346 340 331
260 296 267 290 316 286 120 264 147 142 135 138 121 103 92 77 62 54 50 41 33 29 30 29 25 22 22 14 14 10 6 4 4 3 357 359 359 358 356 353 352 352 350 349 350 351 348 345 342
297 306 314 343 233 285 11 309 197 144 143 140 134 110 79 73 52 37 35 36 31 30 27 25 25 25 21 17 13 7 4 0 358 356 354 356 350 350 350 347 345 343 344 344 342 343 342 342 339
327 325 323 320 306 312 219 346 14 111 97 148 142 121 101 82 58 42 34 30 30 22 21 20 16 16 16 12 8 3 359 357 354 353 350 350 347 342 340 338 337 333 334 333 332 331 332 331 331
309 319 308 310 320 321 339 338 331 12 36 9 163 151 134 111 68 42 32 25 20 28 23 17 15 8 9 7 2 357 352 349 347 345 344 340 339 337 335 332 329 327 325 324 323 322 322 321 320
291 311 315 304 312 322 348 330 337 10 4 356 4 143 135 104 69 45 30 24 21 15 16 17 7 2 359 357 354 351 347 345 343 341 338 335 334 333 330 330 329 324 321 319 317 315 315 315 313
296 294 305 308 311 313 322 330 336 1 1 357 357 8 44 61 47 30 21 28 22 22 15 16 5 356 353 353 351 350 348 345 343 341 341 339 336 333 331 327 324 321 319 317 316 314 312 310 309
293 300 303 308 305 306 314 317 323 337 340 350 350 345 345 5 5 2 3 13 12 11 13 10 4 357 357 353 351 349 347 345 342 341 339 337 335 333 331 329 327 325 322 320 316 313 312 310 308
285 292 301 307 305 306 308 320 336 335 329 332 337 341 335 333 341 348 356 1 5 5 4 2 1 358 355 352 349 347 345 342 340 338 337 335 334 332 330 329 327 326 324 324 322 319 315 311 309
287 288 289 291 298 302 305 307 328 332 335 334 333 339 338 347 345 348 355 1 358 358 0 1 359 355 353 349 347 344 343 340 339 337 336 335 333 332 330 328 326 325 323 321 319 317 315 313 313